Location: Jetmore Oil Field
(38.1181°N, 99.9337°W)
Time: 09:04:37
(UTC+00:00)

STARLINK-2719 - Visible Passes

Search period start: 28 October 2021 00:00
Search period end: 07 November 2021 00:00
Orbit: 546 x 548 km, 53.1° (Epoch: 27 October)

Date Brightness Start Highest point End Pass type
(mag) Time Alt. Az. Time Alt. Az. Time Alt. Az.
28 Oct 6.3 10:11:47 17° ENE 10:11:47 17° ENE 10:12:57 10° ENE visible
28 Oct 4.5 11:47:25 26° WNW 11:48:40 32° NNW 11:52:25 10° NNE visible
29 Oct 6.6 10:06:14 13° ENE 10:06:14 13° ENE 10:06:47 10° ENE visible
29 Oct 4.8 11:41:51 25° NW 11:42:28 26° NNW 11:45:58 10° NNE visible
30 Oct 5.1 11:36:11 21° NNW 11:36:18 22° NNW 11:39:32 10° NNE visible
31 Oct 5.4 11:30:24 18° NNW 11:30:24 18° NNW 11:33:04 10° NNE visible
01 Nov 5.7 11:24:33 15° N 11:24:33 15° N 11:26:35 10° NNE visible
02 Nov 5.9 11:18:39 13° N 11:18:39 13° N 11:20:04 10° NNE visible
03 Nov 6.1 11:12:43 12° N 11:12:43 12° N 11:13:34 10° NNE visible
04 Nov 6.2 11:06:44 10° N 11:06:44 10° N 11:07:02 10° N visible
05 Nov 6.0 12:38:49 10° NNW 12:40:45 13° NNE 12:42:41 10° NE visible
06 Nov 6.0 12:32:18 10° NNW 12:34:39 15° NNE 12:36:59 10° NE visible
